Weather History for Fort Meade, MD

Change the Weather History Date:

Wednesday, July 10, 2013

  Actual Average (KBWI) Record (KBWI)
Temperature  
Mean Temperature 78 °F 77 °F  
Max Temperature 86 °F 88 °F 107 °F (1936)
Min Temperature 69 °F 67 °F 55 °F (1961)
Degree Days  
Heating Degree Days 0 0  
Month to date heating degree days 0  
Since 1 June heating degree days 15  
Since 1 July heating degree days 0  
Cooling Degree Days 12 12  
Month to date cooling degree days 118  
Year to date cooling degree days 440  
Since 1 June cooling degree days 356  
Growing Degree Days 28 (Base 50)    
Moisture  
Dew Point 71 °F    
Average Humidity 84    
Maximum Humidity 94    
Minimum Humidity 62    
Precipitation  
Precipitation 0.00 in 0.12 in 2.29 in (1942)
Month to date precipitation 1.22  
Year to date precipitation 21.71  
Snow  
Snow 0.00 in 0.00 in - ()
Month to date snowfall 0.0  
Since 1 July snowfall 0.0  
Snow Depth -    
Sea Level Pressure  
Sea Level Pressure 29.97 in    
Wind  
Wind Speed 2 mph (SW)    
Max Wind Speed 16 mph    
Max Gust Speed 26 mph    
Visibility 8 miles    
Events      
T = Trace of Precipitation, MM = Missing Value Source: NWS Daily Summary

Daily Weather History Graph

Daily Weather History Graph

Search for Another Location

Airport:

Trip Planner

Search our weather history database for the weather conditions in past years. The results will help you decide how hot, cold, wet, or windy it might be!

Date:

Astronomy

Jul. 10, 2013 Rise Set
Actual Time 5:50 AM EDT 8:34 PM EDT
Civil Twilight 5:18 AM EDT 9:05 PM EDT
Nautical Twilight 4:38 AM EDT 9:45 PM EDT
Astronomical Twilight 3:54 AM EDT 10:30 PM EDT
Moon 8:07 AM EDT (7/10) 9:44 PM EDT (7/10)
Length of Visible Light 15h 47m
Length of Day
14h 44m
Waxing Crescent, 5% of the Moon is Illuminated
Jul 10
Waxing Crescent
Jul 15
First Quarter
Jul 22
Full
Jul 29
Last Quarter
Aug 6
New

Hourly Weather History & Observations

Time (EDT) Temp. Heat Index Dew Point Humidity Pressure Visibility Wind Dir Wind Speed Gust Speed Precip Events Conditions
12:09 AM 71.6 °F - 69.8 °F 94% 30.04 in 3.0 mi Calm Calm - N/A   Overcast
12:27 AM 71.6 °F - 69.8 °F 94% 30.03 in 3.0 mi Calm Calm - N/A   Overcast
12:48 AM 71.6 °F - 69.8 °F 94% 30.03 in 3.0 mi SSW 3.5 mph - N/A   Overcast
1:09 AM 71.6 °F - 69.8 °F 94% 30.02 in 2.5 mi SSW 3.5 mph - N/A   Scattered Clouds
1:27 AM 71.6 °F - 69.8 °F 94% 30.01 in 2.5 mi SSW 3.5 mph - N/A   Clear
1:48 AM 71.6 °F - 69.8 °F 94% 30.01 in 2.5 mi Calm Calm - N/A   Clear
2:09 AM 71.6 °F - 69.8 °F 94% 30.01 in 2.5 mi Calm Calm - N/A   Clear
2:27 AM 71.6 °F - 69.8 °F 94% 30.01 in 2.5 mi Calm Calm - N/A   Clear
2:48 AM 71.6 °F - 69.8 °F 94% 30.00 in 2.5 mi Calm Calm - N/A   Clear
3:09 AM 71.6 °F - 69.8 °F 94% 30.00 in 2.5 mi Calm Calm - N/A   Clear
3:27 AM 69.8 °F - 68.0 °F 94% 30.00 in 2.5 mi Calm Calm - N/A   Clear
3:48 AM 69.8 °F - 68.0 °F 94% 30.01 in 3.0 mi Calm Calm - N/A   Mostly Cloudy
4:09 AM 71.6 °F - 69.8 °F 94% 30.00 in 3.0 mi SW 3.5 mph - N/A   Overcast
4:27 AM 71.6 °F - 69.8 °F 94% 30.00 in 2.5 mi SW 3.5 mph - N/A   Scattered Clouds
4:48 AM 71.6 °F - 69.8 °F 94% 30.00 in 2.5 mi SSW 3.5 mph - N/A   Scattered Clouds
5:09 AM 71.6 °F - 69.8 °F 94% 30.00 in 2.5 mi Calm Calm - N/A   Scattered Clouds
5:30 AM 69.8 °F - 68.0 °F 94% 30.00 in 3.0 mi Calm Calm - N/A   Mostly Cloudy
5:48 AM 69.8 °F - 68.0 °F 94% 30.00 in 2.5 mi Calm Calm - N/A   Mostly Cloudy
6:09 AM 69.8 °F - 68.0 °F 94% 30.01 in 2.0 mi Calm Calm - N/A   Mostly Cloudy
6:30 AM 71.6 °F - 69.8 °F 94% 30.01 in 2.5 mi Calm Calm - N/A   Mostly Cloudy
6:48 AM 71.6 °F - 69.8 °F 94% 30.00 in 4.0 mi Calm Calm - N/A   Scattered Clouds
7:09 AM 71.6 °F - 69.8 °F 94% 30.01 in 3.0 mi SSW 3.5 mph - N/A   Clear
7:30 AM 73.4 °F - 71.6 °F 94% 30.01 in 5.0 mi Calm Calm - N/A   Scattered Clouds
7:48 AM 77.0 °F - 71.6 °F 83% 30.01 in 7.0 mi SSW 4.6 mph - N/A   Mostly Cloudy
8:09 AM 77.0 °F - 73.4 °F 89% 30.00 in 7.0 mi WSW 4.6 mph - N/A   Overcast
8:30 AM 77.0 °F - 73.4 °F 89% 30.01 in 7.0 mi WSW 3.5 mph - N/A   Overcast
8:48 AM 77.0 °F - 73.4 °F 89% 30.01 in 10.0 mi WSW 4.6 mph - N/A   Overcast
9:09 AM 77.0 °F - 73.4 °F 89% 30.01 in 10.0 mi SW 3.5 mph - N/A   Mostly Cloudy
9:30 AM 77.0 °F - 73.4 °F 89% 30.01 in 7.0 mi South 4.6 mph - N/A   Overcast
9:48 AM 77.0 °F - 73.4 °F 89% 30.01 in 7.0 mi SSW 4.6 mph - N/A   Overcast
10:09 AM 77.0 °F - 73.4 °F 89% 30.01 in 7.0 mi Calm Calm - N/A   Scattered Clouds
10:30 AM 77.0 °F - 73.4 °F 89% 30.01 in 10.0 mi SW 3.5 mph - N/A   Scattered Clouds
10:48 AM 78.8 °F - 73.4 °F 83% 30.01 in 10.0 mi SW 3.5 mph - N/A   Mostly Cloudy
11:09 AM 78.8 °F - 73.4 °F 83% 30.01 in 10.0 mi SW 4.6 mph - N/A   Overcast
11:30 AM 80.6 °F 85.4 °F 73.4 °F 79% 30.01 in 10.0 mi WSW 4.6 mph - N/A   Mostly Cloudy
11:48 AM 78.8 °F - 71.6 °F 78% 30.02 in 10.0 mi Calm Calm - N/A   Mostly Cloudy
12:09 PM 80.6 °F 85.4 °F 73.4 °F 79% 30.01 in 10.0 mi SW 3.5 mph - N/A   Mostly Cloudy
12:30 PM 82.4 °F 87.2 °F 71.6 °F 70% 30.00 in 10.0 mi WSW 5.8 mph - N/A   Scattered Clouds
12:48 PM 80.6 °F 85.4 °F 73.4 °F 79% 30.00 in 10.0 mi WSW 4.6 mph - N/A   Mostly Cloudy
1:09 PM 80.6 °F 84.6 °F 71.6 °F 74% 29.99 in 10.0 mi WSW 5.8 mph - N/A   Mostly Cloudy
1:30 PM 80.6 °F 84.6 °F 71.6 °F 74% 29.99 in 10.0 mi SW 5.8 mph - N/A   Scattered Clouds
1:51 PM 80.6 °F 84.6 °F 71.6 °F 74% 29.97 in 10.0 mi South 6.9 mph - N/A   Clear
2:09 PM 82.4 °F 88.2 °F 73.4 °F 74% 29.97 in 10.0 mi SW 5.8 mph - N/A   Clear
2:30 PM 84.2 °F 90.9 °F 73.4 °F 70% 29.95 in 10.0 mi SSW 6.9 mph - N/A   Clear
2:51 PM 86.0 °F 93.4 °F 73.4 °F 66% 29.93 in 10.0 mi SSW 10.4 mph - N/A   Clear
3:09 PM 86.0 °F 91.8 °F 71.6 °F 62% 29.91 in 10.0 mi SW 10.4 mph 16.1 mph N/A   Clear
3:30 PM 84.2 °F 89.6 °F 71.6 °F 66% 29.90 in 10.0 mi SSW 5.8 mph - N/A   Clear
3:51 PM 84.2 °F 90.9 °F 73.4 °F 70% 29.90 in 10.0 mi SSW 8.1 mph - N/A   Clear
4:09 PM 84.2 °F 89.6 °F 71.6 °F 66% 29.90 in 10.0 mi SW 6.9 mph - N/A   Clear
4:30 PM 84.2 °F 90.9 °F 73.4 °F 70% 29.90 in 10.0 mi WSW 4.6 mph - N/A   Clear
4:51 PM 84.2 °F 90.9 °F 73.4 °F 70% 29.89 in 10.0 mi Calm Calm - N/A   Clear
5:09 PM 86.0 °F 93.4 °F 73.4 °F 66% 29.90 in 10.0 mi Calm Calm - N/A   Clear
5:30 PM 84.2 °F 90.9 °F 73.4 °F 70% 29.90 in 10.0 mi SW 4.6 mph - N/A   Clear
5:51 PM 82.4 °F 88.2 °F 73.4 °F 74% 29.90 in 10.0 mi SSW 5.8 mph - N/A   Clear
6:09 PM 82.4 °F 88.2 °F 73.4 °F 74% 29.89 in 10.0 mi SSW 3.5 mph - N/A   Clear
6:30 PM 80.6 °F 85.4 °F 73.4 °F 79% 29.90 in 10.0 mi Calm Calm - N/A   Clear
6:51 PM 80.6 °F 85.4 °F 73.4 °F 79% 29.90 in 10.0 mi Calm Calm - N/A   Clear
7:09 PM 80.6 °F 85.4 °F 73.4 °F 79% 29.91 in 10.0 mi Calm Calm - N/A   Clear
7:30 PM 78.8 °F - 73.4 °F 83% 29.91 in 10.0 mi Calm Calm - N/A   Clear
7:51 PM 78.8 °F - 73.4 °F 83% 29.90 in 10.0 mi Calm Calm - N/A   Clear
8:09 PM 78.8 °F - 73.4 °F 83% 29.91 in 10.0 mi Calm Calm - N/A   Scattered Clouds
8:30 PM 78.8 °F - 71.6 °F 78% 29.93 in 10.0 mi SW 16.1 mph 26.5 mph N/A   Mostly Cloudy
8:51 PM 77.0 °F - 68.0 °F 74% 29.94 in 10.0 mi SW 9.2 mph 21.9 mph N/A   Scattered Clouds
9:09 PM 75.2 °F - 68.0 °F 78% 29.95 in 10.0 mi SW 6.9 mph 10.4 mph N/A   Scattered Clouds
9:30 PM 73.4 °F - 68.0 °F 83% 29.94 in 10.0 mi South 5.8 mph - N/A   Scattered Clouds
9:51 PM 73.4 °F - 69.8 °F 88% 29.93 in 10.0 mi SSW 3.5 mph - N/A   Clear
10:09 PM 71.6 °F - 69.8 °F 94% 29.93 in 10.0 mi Calm Calm - N/A   Clear
10:30 PM 71.6 °F - 69.8 °F 94% 29.92 in 10.0 mi Calm Calm - N/A   Scattered Clouds
10:48 PM 71.6 °F - 68.0 °F 88% 29.91 in 10.0 mi Calm Calm - N/A   Scattered Clouds
11:12 PM 71.6 °F - 69.8 °F 94% 29.91 in 10.0 mi South 4.6 mph - N/A   Clear
11:30 PM 71.6 °F - 69.8 °F 94% 29.91 in 10.0 mi South 4.6 mph - N/A   Clear
11:51 PM 71.6 °F - 69.8 °F 94% 29.91 in 10.0 mi Calm Calm - N/A   Clear